Location: Cuiabá
(15.6014°S, 56.0979°W)
Time: 17:17:40
(UTC-04:00)

Hubble Space Telescope - Pass Details

Date: 03 December 2022
Orbit: 529 x 532 km, 28.5° (Epoch: 04 February)

Event Time Altitude Azimuth Distance (km) Brightness Sun altitude
Rises 18:46:02 0° 268° (W) 2,668 5.7 -9.9°
Reaches altitude 10° 18:48:34 10° 255° (WSW) 1,781 4.9 -10.5°
Maximum altitude 18:52:03 26° 197° (SSW) 1,073 2.8 -11.2°
Drops below altitude 10° 18:55:33 10° 139° (SE) 1,787 3.3 -12.0°
Sets 18:58:06 0° 126° (SE) 2,680 4.1 -12.5°
